Time,TemperatureF,DewpointF,PressureIn,WindDirection,WindDirectionDegrees,WindSpeedMPH,WindSpeedGustMPH,Humidity,HourlyPrecipIn,Conditions,Clouds,dailyrainin,SolarRadiationWatts/m^2,SoftwareType,DateUTC
2014-04-05 00:04:00,46.2,14.8,29.82,South,177,0.0,-999.0,28,0.00,,,0.00,0,Wunderground v.1.15,2014-04-05 07:04:00,
2014-04-05 00:09:00,46.1,14.8,29.82,South,178,0.0,-999.0,28,0.00,,,0.00,0,Wunderground v.1.15,2014-04-05 07:09:00,
2014-04-05 00:14:00,46.0,14.7,29.82,South,178,0.0,-999.0,28,0.00,,,0.00,0,Wunderground v.1.15,2014-04-05 07:14:00,
2014-04-05 00:19:00,45.8,14.5,29.82,South,178,0.0,-999.0,28,0.00,,,0.00,0,Wunderground v.1.15,2014-04-05 07:19:00,
2014-04-05 00:24:00,45.7,15.2,29.81,South,177,0.0,-999.0,29,0.00,,,0.00,0,Wunderground v.1.15,2014-04-05 07:24:00,
2014-04-05 00:29:00,45.5,15.8,29.81,South,178,0.0,-999.0,30,0.00,,,0.00,0,Wunderground v.1.15,2014-04-05 07:29:00,
2014-04-05 00:34:00,45.4,15.7,29.81,South,178,0.0,-999.0,30,0.00,,,0.00,0,Wunderground v.1.15,2014-04-05 07:34:00,
2014-04-05 00:39:00,45.4,15.7,29.81,South,178,0.0,-999.0,30,0.00,,,0.00,0,Wunderground v.1.15,2014-04-05 07:39:00,
2014-04-05 00:44:00,45.3,14.9,29.81,South,178,0.0,-999.0,29,0.00,,,0.00,0,Wunderground v.1.15,2014-04-05 07:44:00,
2014-04-05 00:49:00,45.3,14.9,29.81,South,177,0.0,-999.0,29,0.00,,,0.00,0,Wunderground v.1.15,2014-04-05 07:49:00,
2014-04-05 00:55:00,45.1,14.7,29.81,South,178,0.0,-999.0,29,0.00,,,0.00,0,Wunderground v.1.15,2014-04-05 07:55:00,
2014-04-05 01:00:00,44.8,15.2,29.81,SE,146,9.0,-999.0,30,0.00,,,0.00,0,Wunderground v.1.15,2014-04-05 08:00:00,
2014-04-05 01:07:00,45.5,15.8,29.81,SE,145,0.0,-999.0,30,0.00,,,0.00,0,Wunderground v.1.15,2014-04-05 08:07:00,
2014-04-05 01:12:00,45.8,16.1,29.81,SE,145,0.0,-999.0,30,0.00,,,0.00,0,Wunderground v.1.15,2014-04-05 08:12:00,
2014-04-05 01:17:00,46.0,16.3,29.81,SE,145,0.0,-999.0,30,0.00,,,0.00,0,Wunderground v.1.15,2014-04-05 08:17:00,
2014-04-05 01:23:00,46.2,16.4,29.81,SE,145,0.0,-999.0,30,0.00,,,0.00,0,Wunderground v.1.15,2014-04-05 08:23:00,
2014-04-05 01:28:00,46.2,15.6,29.81,SE,145,0.0,-999.0,29,0.00,,,0.00,0,Wunderground v.1.15,2014-04-05 08:28:00,
2014-04-05 01:33:00,46.0,15.5,29.82,SE,145,0.0,-999.0,29,0.00,,,0.00,0,Wunderground v.1.15,2014-04-05 08:33:00,
2014-04-05 01:38:00,45.7,16.0,29.81,SE,145,0.0,-999.0,30,0.00,,,0.00,0,Wunderground v.1.15,2014-04-05 08:38:00,
2014-04-05 01:43:00,45.2,15.6,29.81,SE,145,0.0,-999.0,30,0.00,,,0.00,0,Wunderground v.1.15,2014-04-05 08:43:00,
2014-04-05 01:48:00,44.7,15.1,29.81,SE,145,0.0,-999.0,30,0.00,,,0.00,0,Wunderground v.1.15,2014-04-05 08:48:00,
2014-04-05 01:53:00,44.2,15.4,29.81,SE,145,0.0,-999.0,31,0.00,,,0.00,0,Wunderground v.1.15,2014-04-05 08:53:00,
2014-04-05 01:58:00,43.8,15.8,29.80,SE,145,0.0,-999.0,32,0.00,,,0.00,0,Wunderground v.1.15,2014-04-05 08:58:00,
2014-04-05 02:03:00,43.3,16.1,29.81,SE,145,0.0,-999.0,33,0.00,,,0.00,0,Wunderground v.1.15,2014-04-05 09:03:00,
2014-04-05 02:08:00,43.0,15.8,29.81,SE,146,0.0,-999.0,33,0.00,,,0.00,0,Wunderground v.1.15,2014-04-05 09:08:00,
2014-04-05 02:13:00,42.8,15.6,29.81,SE,146,0.0,-999.0,33,0.00,,,0.00,0,Wunderground v.1.15,2014-04-05 09:13:00,
2014-04-05 02:18:00,42.6,16.2,29.81,SE,146,0.0,-999.0,34,0.00,,,0.00,0,Wunderground v.1.15,2014-04-05 09:18:00,
2014-04-05 02:23:00,42.5,15.4,29.80,SE,146,0.0,-999.0,33,0.00,,,0.00,0,Wunderground v.1.15,2014-04-05 09:23:00,
2014-04-05 02:28:00,42.4,15.3,29.80,SE,146,0.0,-999.0,33,0.00,,,0.00,0,Wunderground v.1.15,2014-04-05 09:28:00,
2014-04-05 02:33:00,42.2,15.1,29.80,SE,146,0.0,-999.0,33,0.00,,,0.00,0,Wunderground v.1.15,2014-04-05 09:33:00,
2014-04-05 02:38:00,41.9,14.8,29.80,SE,146,0.0,-999.0,33,0.00,,,0.00,0,Wunderground v.1.15,2014-04-05 09:38:00,
2014-04-05 02:43:00,41.5,14.5,29.80,SE,146,0.0,-999.0,33,0.00,,,0.00,0,Wunderground v.1.15,2014-04-05 09:43:00,
2014-04-05 02:48:00,40.9,14.6,29.80,SE,145,0.0,-999.0,34,0.00,,,0.00,0,Wunderground v.1.15,2014-04-05 09:48:00,
2014-04-05 02:53:00,40.4,13.5,29.80,SE,146,0.0,-999.0,33,0.00,,,0.00,0,Wunderground v.1.15,2014-04-05 09:53:00,
2014-04-05 02:58:00,39.9,14.4,29.80,SE,146,0.0,-999.0,35,0.00,,,0.00,0,Wunderground v.1.15,2014-04-05 09:58:00,
2014-04-05 03:03:00,39.5,14.1,29.80,SE,146,0.0,-999.0,35,0.00,,,0.00,0,Wunderground v.1.15,2014-04-05 10:03:00,
2014-04-05 03:08:00,39.1,13.7,29.80,SE,145,0.0,-999.0,35,0.00,,,0.00,0,Wunderground v.1.15,2014-04-05 10:08:00,
2014-04-05 03:13:00,38.8,14.1,29.80,SE,146,0.0,-999.0,36,0.00,,,0.00,0,Wunderground v.1.15,2014-04-05 10:13:00,
2014-04-05 03:18:00,38.5,13.8,29.79,SE,145,0.0,-999.0,36,0.00,,,0.00,0,Wunderground v.1.15,2014-04-05 10:18:00,
2014-04-05 03:23:00,38.3,13.0,29.79,SE,146,0.0,-999.0,35,0.00,,,0.00,0,Wunderground v.1.15,2014-04-05 10:23:00,
2014-04-05 03:28:00,38.0,12.7,29.79,SE,146,0.0,-999.0,35,0.00,,,0.00,0,Wunderground v.1.15,2014-04-05 10:28:00,
2014-04-05 03:33:00,37.7,13.1,29.79,SE,145,0.0,-999.0,36,0.00,,,0.00,0,Wunderground v.1.15,2014-04-05 10:33:00,
2014-04-05 03:38:00,37.4,12.8,29.79,SE,145,0.0,-999.0,36,0.00,,,0.00,0,Wunderground v.1.15,2014-04-05 10:38:00,
2014-04-05 03:43:00,37.0,12.5,29.79,SE,145,0.0,-999.0,36,0.00,,,0.00,0,Wunderground v.1.15,2014-04-05 10:43:00,
2014-04-05 03:48:00,36.7,12.2,29.79,SE,145,0.0,-999.0,36,0.00,,,0.00,0,Wunderground v.1.15,2014-04-05 10:48:00,
2014-04-05 03:53:00,36.4,12.6,29.79,SE,145,0.0,-999.0,37,0.00,,,0.00,0,Wunderground v.1.15,2014-04-05 10:53:00,
2014-04-05 03:58:00,36.1,12.3,29.79,SE,146,0.0,-999.0,37,0.00,,,0.00,0,Wunderground v.1.15,2014-04-05 10:58:00,
2014-04-05 04:03:00,35.7,12.5,29.79,SE,145,0.0,-999.0,38,0.00,,,0.00,0,Wunderground v.1.15,2014-04-05 11:03:00,
2014-04-05 04:08:00,35.5,13.0,29.79,SE,145,0.0,-999.0,39,0.00,,,0.00,0,Wunderground v.1.15,2014-04-05 11:08:00,
2014-04-05 04:13:00,35.2,12.7,29.79,SE,145,0.0,-999.0,39,0.00,,,0.00,0,Wunderground v.1.15,2014-04-05 11:13:00,
2014-04-05 04:18:00,35.1,12.6,29.79,SE,145,0.0,-999.0,39,0.00,,,0.00,0,Wunderground v.1.15,2014-04-05 11:18:00,
2014-04-05 04:23:00,34.9,13.0,29.79,SE,145,0.0,-999.0,40,0.00,,,0.00,0,Wunderground v.1.15,2014-04-05 11:23:00,
2014-04-05 04:28:00,34.7,12.8,29.79,SE,145,0.0,-999.0,40,0.00,,,0.00,0,Wunderground v.1.15,2014-04-05 11:28:00,
2014-04-05 04:33:00,34.6,13.3,29.79,SE,145,0.0,-999.0,41,0.00,,,0.00,0,Wunderground v.1.15,2014-04-05 11:33:00,
2014-04-05 04:38:00,34.5,12.6,29.80,SE,145,0.0,-999.0,40,0.00,,,0.00,0,Wunderground v.1.15,2014-04-05 11:38:00,
2014-04-05 04:43:00,34.4,13.1,29.79,SE,145,0.0,-999.0,41,0.00,,,0.00,0,Wunderground v.1.15,2014-04-05 11:43:00,
2014-04-05 04:48:00,34.4,12.5,29.79,SE,146,0.0,-999.0,40,0.00,,,0.00,0,Wunderground v.1.15,2014-04-05 11:48:00,
2014-04-05 04:53:00,34.4,13.1,29.79,SE,146,0.0,-999.0,41,0.00,,,0.00,0,Wunderground v.1.15,2014-04-05 11:53:00,
2014-04-05 04:58:00,34.2,12.9,29.80,SE,146,0.0,-999.0,41,0.00,,,0.00,0,Wunderground v.1.15,2014-04-05 11:58:00,
2014-04-05 05:03:00,33.9,12.6,29.80,SE,146,0.0,-999.0,41,0.00,,,0.00,0,Wunderground v.1.15,2014-04-05 12:03:00,
2014-04-05 05:08:00,33.8,13.1,29.80,SE,145,0.0,-999.0,42,0.00,,,0.00,0,Wunderground v.1.15,2014-04-05 12:08:00,
2014-04-05 05:13:00,33.7,13.5,29.80,SE,145,0.0,-999.0,43,0.00,,,0.00,0,Wunderground v.1.15,2014-04-05 12:13:00,
2014-04-05 05:18:00,33.7,13.0,29.80,SE,145,0.0,-999.0,42,0.00,,,0.00,0,Wunderground v.1.15,2014-04-05 12:18:00,
2014-04-05 05:23:00,33.7,14.1,29.80,SE,146,0.0,-999.0,44,0.00,,,0.00,0,Wunderground v.1.15,2014-04-05 12:23:00,
2014-04-05 05:28:00,33.8,14.7,29.80,SE,146,0.0,-999.0,45,0.00,,,0.00,0,Wunderground v.1.15,2014-04-05 12:28:00,
2014-04-05 05:33:00,33.9,13.2,29.80,SE,145,0.0,-999.0,42,0.00,,,0.00,0,Wunderground v.1.15,2014-04-05 12:33:00,
2014-04-05 05:38:00,33.9,13.7,29.81,SE,145,0.0,-999.0,43,0.00,,,0.00,0,Wunderground v.1.15,2014-04-05 12:38:00,
2014-04-05 05:43:00,34.1,15.5,29.81,SE,146,0.0,-999.0,46,0.00,,,0.00,0,Wunderground v.1.15,2014-04-05 12:43:00,
2014-04-05 05:48:00,34.4,16.7,29.81,SE,145,0.0,-999.0,48,0.00,,,0.00,0,Wunderground v.1.15,2014-04-05 12:48:00,
2014-04-05 05:53:00,34.4,16.7,29.81,SE,145,0.0,-999.0,48,0.00,,,0.00,0,Wunderground v.1.15,2014-04-05 12:53:00,
2014-04-05 05:58:00,34.7,17.0,29.82,SE,146,1.0,-999.0,48,0.00,,,0.00,0,Wunderground v.1.15,2014-04-05 12:58:00,
2014-04-05 06:03:00,35.1,17.8,29.82,SE,146,0.0,-999.0,49,0.00,,,0.00,0,Wunderground v.1.15,2014-04-05 13:03:00,
2014-04-05 06:08:00,35.4,17.1,29.82,SE,146,0.0,-999.0,47,0.00,,,0.00,7,Wunderground v.1.15,2014-04-05 13:08:00,
2014-04-05 06:13:00,35.5,16.7,29.82,SE,145,0.0,-999.0,46,0.00,,,0.00,11,Wunderground v.1.15,2014-04-05 13:13:00,
2014-04-05 06:18:00,35.6,16.8,29.82,SE,145,0.0,-999.0,46,0.00,,,0.00,14,Wunderground v.1.15,2014-04-05 13:18:00,
2014-04-05 06:23:00,35.7,16.4,29.82,SE,145,0.0,-999.0,45,0.00,,,0.00,16,Wunderground v.1.15,2014-04-05 13:23:00,
2014-04-05 06:28:00,35.7,16.4,29.82,SE,145,0.0,-999.0,45,0.00,,,0.00,21,Wunderground v.1.15,2014-04-05 13:28:00,
2014-04-05 06:33:00,35.7,16.4,29.83,SE,146,0.0,-999.0,45,0.00,,,0.00,32,Wunderground v.1.15,2014-04-05 13:33:00,
2014-04-05 06:38:00,35.9,16.6,29.83,SE,146,0.0,-999.0,45,0.00,,,0.00,47,Wunderground v.1.15,2014-04-05 13:38:00,
2014-04-05 06:43:00,36.4,17.1,29.83,SE,146,0.0,-999.0,45,0.00,,,0.00,65,Wunderground v.1.15,2014-04-05 13:43:00,
2014-04-05 06:48:00,37.1,17.2,29.84,SE,146,0.0,-999.0,44,0.00,,,0.00,83,Wunderground v.1.15,2014-04-05 13:48:00,
2014-04-05 06:54:00,37.9,17.4,29.84,SE,146,0.0,-999.0,43,0.00,,,0.00,104,Wunderground v.1.15,2014-04-05 13:54:00,
2014-04-05 06:59:00,39.1,17.9,29.84,SE,146,0.0,-999.0,42,0.00,,,0.00,125,Wunderground v.1.15,2014-04-05 13:59:00,
2014-04-05 07:04:00,41.0,18.5,29.84,SE,145,0.0,-999.0,40,0.00,,,0.00,149,Wunderground v.1.15,2014-04-05 14:04:00,
2014-04-05 07:09:00,42.5,19.3,29.84,SE,146,0.0,-999.0,39,0.00,,,0.00,172,Wunderground v.1.15,2014-04-05 14:09:00,
2014-04-05 07:14:00,43.8,20.4,29.84,SE,146,0.0,-999.0,39,0.00,,,0.00,197,Wunderground v.1.15,2014-04-05 14:14:00,
2014-04-05 07:20:00,44.9,20.8,29.84,SE,146,0.0,-999.0,38,0.00,,,0.00,221,Wunderground v.1.15,2014-04-05 14:20:00,
2014-04-05 07:25:00,45.8,21.0,29.84,SE,145,0.0,-999.0,37,0.00,,,0.00,243,Wunderground v.1.15,2014-04-05 14:25:00,
2014-04-05 07:30:00,46.6,21.0,29.84,SE,146,0.0,-999.0,36,0.00,,,0.00,265,Wunderground v.1.15,2014-04-05 14:30:00,
2014-04-05 07:35:00,47.3,21.0,29.84,SE,146,0.0,-999.0,35,0.00,,,0.00,287,Wunderground v.1.15,2014-04-05 14:35:00,
2014-04-05 07:40:00,48.2,21.1,29.84,SE,146,0.0,-999.0,34,0.00,,,0.00,308,Wunderground v.1.15,2014-04-05 14:40:00,
2014-04-05 07:45:00,49.0,21.1,29.84,SE,146,0.0,-999.0,33,0.00,,,0.00,322,Wunderground v.1.15,2014-04-05 14:45:00,
2014-04-05 07:50:00,49.7,21.0,29.84,SE,146,0.0,-999.0,32,0.00,,,0.00,339,Wunderground v.1.15,2014-04-05 14:50:00,
2014-04-05 07:55:00,50.7,21.1,29.84,SE,146,0.0,-999.0,31,0.00,,,0.00,359,Wunderground v.1.15,2014-04-05 14:55:00,
2014-04-05 08:00:00,51.5,21.8,29.84,SE,146,0.0,-999.0,31,0.00,,,0.00,378,Wunderground v.1.15,2014-04-05 15:00:00,
2014-04-05 08:05:00,52.2,21.7,29.84,SE,146,0.0,-999.0,30,0.00,,,0.00,397,Wunderground v.1.15,2014-04-05 15:05:00,
2014-04-05 08:10:00,53.1,20.8,29.84,SE,146,0.0,-999.0,28,0.00,,,0.00,417,Wunderground v.1.15,2014-04-05 15:10:00,
2014-04-05 08:15:00,53.9,20.6,29.84,SE,146,0.0,-999.0,27,0.00,,,0.00,434,Wunderground v.1.15,2014-04-05 15:15:00,
2014-04-05 08:20:00,54.5,20.3,29.85,SE,145,0.0,-999.0,26,0.00,,,0.00,452,Wunderground v.1.15,2014-04-05 15:20:00,
2014-04-05 08:25:00,55.2,20.9,29.84,SE,145,0.0,-999.0,26,0.00,,,0.00,469,Wunderground v.1.15,2014-04-05 15:25:00,
2014-04-05 08:30:00,55.9,19.6,29.84,SE,145,0.0,-999.0,24,0.00,,,0.00,490,Wunderground v.1.15,2014-04-05 15:30:00,
2014-04-05 08:35:00,56.6,20.2,29.84,SE,145,0.0,-999.0,24,0.00,,,0.00,506,Wunderground v.1.15,2014-04-05 15:35:00,
2014-04-05 08:40:00,57.3,19.8,29.84,SE,145,0.0,-999.0,23,0.00,,,0.00,526,Wunderground v.1.15,2014-04-05 15:40:00,
2014-04-05 08:45:00,57.6,20.0,29.84,SE,145,0.0,-999.0,23,0.00,,,0.00,543,Wunderground v.1.15,2014-04-05 15:45:00,
2014-04-05 08:50:00,58.0,20.4,29.84,SE,145,0.0,-999.0,23,0.00,,,0.00,563,Wunderground v.1.15,2014-04-05 15:50:00,
2014-04-05 08:55:00,58.4,20.7,29.84,SE,145,0.0,-999.0,23,0.00,,,0.00,578,Wunderground v.1.15,2014-04-05 15:55:00,
2014-04-05 09:00:00,59.0,21.2,29.84,SE,145,1.0,-999.0,23,0.00,,,0.00,591,Wunderground v.1.15,2014-04-05 16:00:00,
2014-04-05 09:05:00,59.0,20.2,29.84,SE,145,0.0,-999.0,22,0.00,,,0.00,610,Wunderground v.1.15,2014-04-05 16:05:00,
2014-04-05 09:10:00,59.2,21.4,29.84,SE,145,0.0,-999.0,23,0.00,,,0.00,626,Wunderground v.1.15,2014-04-05 16:10:00,
2014-04-05 09:15:00,59.7,21.8,29.83,SE,145,0.0,-999.0,23,0.00,,,0.00,642,Wunderground v.1.15,2014-04-05 16:15:00,
2014-04-05 09:20:00,60.1,21.1,29.84,SE,145,0.0,-999.0,22,0.00,,,0.00,659,Wunderground v.1.15,2014-04-05 16:20:00,
2014-04-05 09:25:00,60.5,22.5,29.83,SE,145,0.0,-999.0,23,0.00,,,0.00,673,Wunderground v.1.15,2014-04-05 16:25:00,
2014-04-05 09:30:00,60.8,22.7,29.83,SSE,157,0.0,-999.0,23,0.00,,,0.00,691,Wunderground v.1.15,2014-04-05 16:30:00,
2014-04-05 09:35:00,60.8,23.7,29.83,SSE,157,0.0,-999.0,24,0.00,,,0.00,705,Wunderground v.1.15,2014-04-05 16:35:00,
2014-04-05 09:40:00,61.1,24.0,29.83,SSE,157,0.0,-999.0,24,0.00,,,0.00,721,Wunderground v.1.15,2014-04-05 16:40:00,
2014-04-05 09:45:00,61.6,23.4,29.83,SSE,157,0.0,-999.0,23,0.00,,,0.00,733,Wunderground v.1.15,2014-04-05 16:45:00,
2014-04-05 09:50:00,62.0,23.7,29.83,SSE,157,0.0,-999.0,23,0.00,,,0.00,747,Wunderground v.1.15,2014-04-05 16:50:00,
2014-04-05 09:55:00,62.3,25.0,29.83,SSE,157,0.0,-999.0,24,0.00,,,0.00,761,Wunderground v.1.15,2014-04-05 16:55:00,
2014-04-05 10:03:00,62.7,25.3,29.83,SSE,156,0.0,-999.0,24,0.00,,,0.00,789,Wunderground v.1.15,2014-04-05 17:03:00,
2014-04-05 10:08:00,62.9,25.5,29.83,SSE,157,4.0,-999.0,24,0.00,,,0.00,796,Wunderground v.1.15,2014-04-05 17:08:00,
2014-04-05 10:13:00,63.2,25.8,29.83,SW,235,2.0,-999.0,24,0.00,,,0.00,809,Wunderground v.1.15,2014-04-05 17:13:00,
2014-04-05 10:18:00,63.4,25.9,29.83,SSW,196,7.0,-999.0,24,0.00,,,0.00,821,Wunderground v.1.15,2014-04-05 17:18:00,
2014-04-05 10:23:00,63.5,26.0,29.83,South,176,6.0,-999.0,24,0.00,,,0.00,835,Wunderground v.1.15,2014-04-05 17:23:00,
2014-04-05 10:28:00,63.7,25.2,29.83,SSW,199,0.0,-999.0,23,0.00,,,0.00,847,Wunderground v.1.15,2014-04-05 17:28:00,
2014-04-05 10:33:00,64.0,26.4,29.82,SSE,168,6.0,-999.0,24,0.00,,,0.00,854,Wunderground v.1.15,2014-04-05 17:33:00,
2014-04-05 10:38:00,64.2,25.6,29.82,SSE,152,9.0,-999.0,23,0.00,,,0.00,868,Wunderground v.1.15,2014-04-05 17:38:00,
2014-04-05 10:43:00,64.5,24.8,29.82,SSE,162,6.0,-999.0,22,0.00,,,0.00,879,Wunderground v.1.15,2014-04-05 17:43:00,
2014-04-05 10:48:00,64.8,25.0,29.82,South,181,1.0,-999.0,22,0.00,,,0.00,896,Wunderground v.1.15,2014-04-05 17:48:00,
2014-04-05 10:53:00,64.9,25.1,29.82,SSW,199,0.0,-999.0,22,0.00,,,0.00,909,Wunderground v.1.15,2014-04-05 17:53:00,
2014-04-05 10:58:00,65.3,25.4,29.82,SSW,197,0.0,-999.0,22,0.00,,,0.00,939,Wunderground v.1.15,2014-04-05 17:58:00,
2014-04-05 11:03:00,65.9,24.8,29.81,SSW,199,0.0,-999.0,21,0.00,,,0.00,928,Wunderground v.1.15,2014-04-05 18:03:00,
2014-04-05 11:08:00,65.8,24.7,29.81,SW,217,4.0,-999.0,21,0.00,,,0.00,965,Wunderground v.1.15,2014-04-05 18:08:00,
2014-04-05 11:13:00,65.8,24.7,29.81,SW,223,0.0,-999.0,21,0.00,,,0.00,1004,Wunderground v.1.15,2014-04-05 18:13:00,
2014-04-05 11:18:00,66.0,24.9,29.81,SW,222,0.0,-999.0,21,0.00,,,0.00,990,Wunderground v.1.15,2014-04-05 18:18:00,
2014-04-05 11:23:00,65.8,23.6,29.81,SW,222,1.0,-999.0,20,0.00,,,0.00,181,Wunderground v.1.15,2014-04-05 18:23:00,
2014-04-05 11:29:00,65.3,24.3,29.80,SW,227,2.0,-999.0,21,0.00,,,0.00,1107,Wunderground v.1.15,2014-04-05 18:29:00,
2014-04-05 11:34:00,64.7,23.8,29.80,SW,228,0.0,-999.0,21,0.00,,,0.00,1120,Wunderground v.1.15,2014-04-05 18:34:00,
2014-04-05 11:39:00,64.2,23.4,29.80,SW,232,3.0,-999.0,21,0.00,,,0.00,276,Wunderground v.1.15,2014-04-05 18:39:00,
2014-04-05 11:44:00,63.8,23.1,29.80,WSW,243,1.0,-999.0,21,0.00,,,0.00,362,Wunderground v.1.15,2014-04-05 18:44:00,
2014-04-05 11:49:00,63.4,23.8,29.80,WSW,242,0.0,-999.0,22,0.00,,,0.00,320,Wunderground v.1.15,2014-04-05 18:49:00,
2014-04-05 11:54:00,62.9,23.4,29.80,WSW,253,0.0,-999.0,22,0.00,,,0.00,353,Wunderground v.1.15,2014-04-05 18:54:00,
2014-04-05 11:59:00,63.2,23.7,29.80,West,264,3.0,-999.0,22,0.00,,,0.00,937,Wunderground v.1.15,2014-04-05 18:59:00,
2014-04-05 12:04:00,63.6,25.1,29.80,West,265,9.0,-999.0,23,0.00,,,0.00,582,Wunderground v.1.15,2014-04-05 19:04:00,
2014-04-05 12:09:00,64.2,25.6,29.80,SSW,195,4.0,-999.0,23,0.00,,,0.00,308,Wunderground v.1.15,2014-04-05 19:09:00,
2014-04-05 12:14:00,64.0,25.4,29.80,South,177,5.0,-999.0,23,0.00,,,0.00,332,Wunderground v.1.15,2014-04-05 19:14:00,
2014-04-05 12:19:00,64.4,25.8,29.80,South,183,0.0,-999.0,23,0.00,,,0.00,343,Wunderground v.1.15,2014-04-05 19:19:00,
2014-04-05 12:24:00,64.3,24.6,29.80,South,183,0.0,-999.0,22,0.00,,,0.00,281,Wunderground v.1.15,2014-04-05 19:24:00,
2014-04-05 12:29:00,64.0,25.4,29.80,South,183,0.0,-999.0,23,0.00,,,0.00,278,Wunderground v.1.15,2014-04-05 19:29:00,
2014-04-05 12:35:00,63.7,25.2,29.79,South,183,0.0,-999.0,23,0.00,,,0.00,306,Wunderground v.1.15,2014-04-05 19:35:00,
2014-04-05 12:40:00,63.5,25.0,29.79,South,184,0.0,-999.0,23,0.00,,,0.00,278,Wunderground v.1.15,2014-04-05 19:40:00,
2014-04-05 12:45:00,63.3,24.8,29.79,South,184,0.0,-999.0,23,0.00,,,0.00,258,Wunderground v.1.15,2014-04-05 19:45:00,
2014-04-05 12:50:00,63.1,24.7,29.79,South,184,0.0,-999.0,23,0.00,,,0.00,299,Wunderground v.1.15,2014-04-05 19:50:00,
2014-04-05 12:55:00,63.1,24.7,29.79,SSW,194,0.0,-999.0,23,0.00,,,0.00,336,Wunderground v.1.15,2014-04-05 19:55:00,
2014-04-05 13:00:00,63.1,23.6,29.78,WNW,299,0.0,-999.0,22,0.00,,,0.00,339,Wunderground v.1.15,2014-04-05 20:00:00,
2014-04-05 13:05:00,63.0,23.5,29.78,WNW,292,0.0,-999.0,22,0.00,,,0.00,403,Wunderground v.1.15,2014-04-05 20:05:00,
2014-04-05 13:10:00,63.4,23.8,29.78,WNW,286,0.0,-999.0,22,0.00,,,0.00,343,Wunderground v.1.15,2014-04-05 20:10:00,
2014-04-05 13:15:00,63.5,23.9,29.78,WNW,288,0.0,-999.0,22,0.00,,,0.00,336,Wunderground v.1.15,2014-04-05 20:15:00,
2014-04-05 13:20:00,63.6,22.9,29.78,WNW,290,0.0,-999.0,21,0.00,,,0.00,524,Wunderground v.1.15,2014-04-05 20:20:00,
2014-04-05 13:25:00,64.1,24.4,29.78,WNW,290,0.0,-999.0,22,0.00,,,0.00,1069,Wunderground v.1.15,2014-04-05 20:25:00,
2014-04-05 13:30:00,64.6,23.7,29.78,West,272,4.0,-999.0,21,0.00,,,0.00,1134,Wunderground v.1.15,2014-04-05 20:30:00,
2014-04-05 13:35:00,65.6,23.4,29.77,SW,224,4.0,-999.0,20,0.00,,,0.00,427,Wunderground v.1.15,2014-04-05 20:35:00,
2014-04-05 13:40:00,66.8,24.4,29.77,SSW,205,9.0,-999.0,20,0.00,,,0.00,427,Wunderground v.1.15,2014-04-05 20:40:00,
2014-04-05 13:45:00,67.4,23.7,29.77,SW,231,6.0,-999.0,19,0.00,,,0.00,963,Wunderground v.1.15,2014-04-05 20:45:00,
2014-04-05 13:50:00,67.8,24.0,29.77,South,178,12.0,-999.0,19,0.00,,,0.00,1037,Wunderground v.1.15,2014-04-05 20:50:00,
2014-04-05 13:55:00,67.9,24.1,29.77,South,189,6.0,-999.0,19,0.00,,,0.00,411,Wunderground v.1.15,2014-04-05 20:55:00,
2014-04-05 14:00:00,67.5,23.7,29.77,SSW,198,8.0,-999.0,19,0.00,,,0.00,380,Wunderground v.1.15,2014-04-05 21:00:00,
2014-04-05 14:05:00,67.2,23.5,29.77,SSW,207,4.0,-999.0,19,0.00,,,0.00,838,Wunderground v.1.15,2014-04-05 21:05:00,
2014-04-05 14:10:00,67.0,22.1,29.76,SW,221,5.0,-999.0,18,0.00,,,0.00,290,Wunderground v.1.15,2014-04-05 21:10:00,
2014-04-05 14:15:00,66.5,22.9,29.77,SSW,197,4.0,-999.0,19,0.00,,,0.00,373,Wunderground v.1.15,2014-04-05 21:15:00,
2014-04-05 14:20:00,66.7,24.3,29.76,SSW,195,2.0,-999.0,20,0.00,,,0.00,983,Wunderground v.1.15,2014-04-05 21:20:00,
2014-04-05 14:25:00,67.7,23.9,29.76,SSW,203,3.0,-999.0,19,0.00,,,0.00,812,Wunderground v.1.15,2014-04-05 21:25:00,
2014-04-05 14:30:00,67.3,20.9,29.76,SW,227,7.0,-999.0,17,0.00,,,0.00,264,Wunderground v.1.15,2014-04-05 21:30:00,
2014-04-05 14:35:00,66.5,20.3,29.76,SSW,193,12.0,-999.0,17,0.00,,,0.00,285,Wunderground v.1.15,2014-04-05 21:35:00,
2014-04-05 14:40:00,65.9,21.2,29.76,SSW,195,1.0,-999.0,18,0.00,,,0.00,272,Wunderground v.1.15,2014-04-05 21:40:00,
2014-04-05 14:45:00,65.4,20.7,29.76,SW,234,9.0,-999.0,18,0.00,,,0.00,246,Wunderground v.1.15,2014-04-05 21:45:00,
2014-04-05 14:50:00,65.1,20.5,29.76,SSW,204,1.0,-999.0,18,0.00,,,0.00,264,Wunderground v.1.15,2014-04-05 21:50:00,
2014-04-05 14:55:00,65.1,20.5,29.75,SSW,205,1.0,-999.0,18,0.00,,,0.00,313,Wunderground v.1.15,2014-04-05 21:55:00,
2014-04-05 15:00:00,66.0,21.2,29.75,SSW,197,7.0,-999.0,18,0.00,,,0.00,984,Wunderground v.1.15,2014-04-05 22:00:00,
2014-04-05 15:05:00,67.5,21.1,29.75,SSW,195,10.0,-999.0,17,0.00,,,0.00,954,Wunderground v.1.15,2014-04-05 22:05:00,
2014-04-05 15:10:00,68.1,21.6,29.75,SW,217,8.0,-999.0,17,0.00,,,0.00,844,Wunderground v.1.15,2014-04-05 22:10:00,
2014-04-05 15:15:00,68.5,20.5,29.76,WSW,253,12.0,-999.0,16,0.00,,,0.00,807,Wunderground v.1.15,2014-04-05 22:15:00,
2014-04-05 15:20:00,68.6,20.6,29.76,WSW,243,8.0,-999.0,16,0.00,,,0.00,786,Wunderground v.1.15,2014-04-05 22:20:00,
2014-04-05 15:25:00,67.9,20.0,29.76,WSW,257,7.0,-999.0,16,0.00,,,0.00,118,Wunderground v.1.15,2014-04-05 22:25:00,
2014-04-05 15:30:00,66.6,20.4,29.76,NW,309,5.0,-999.0,17,0.00,,,0.00,134,Wunderground v.1.15,2014-04-05 22:30:00,
2014-04-05 15:35:00,65.5,19.5,29.76,SW,220,6.0,-999.0,17,0.00,,,0.00,167,Wunderground v.1.15,2014-04-05 22:35:00,
2014-04-05 15:40:00,64.8,20.2,29.76,SW,220,0.0,-999.0,18,0.00,,,0.00,316,Wunderground v.1.15,2014-04-05 22:40:00,
2014-04-05 15:45:00,65.0,20.4,29.76,SW,220,4.0,-999.0,18,0.00,,,0.00,446,Wunderground v.1.15,2014-04-05 22:45:00,
2014-04-05 15:50:00,65.4,22.0,29.76,West,271,11.0,-999.0,19,0.00,,,0.00,302,Wunderground v.1.15,2014-04-05 22:50:00,
2014-04-05 15:55:00,65.7,21.0,29.76,West,280,8.0,-999.0,18,0.00,,,0.00,536,Wunderground v.1.15,2014-04-05 22:55:00,
2014-04-05 16:00:00,66.3,21.5,29.76,WSW,251,9.0,-999.0,18,0.00,,,0.00,707,Wunderground v.1.15,2014-04-05 23:00:00,
2014-04-05 16:05:00,67.0,22.1,29.76,West,261,0.0,-999.0,18,0.00,,,0.00,666,Wunderground v.1.15,2014-04-05 23:05:00,
2014-04-05 16:10:00,67.6,21.2,29.76,SW,228,12.0,-999.0,17,0.00,,,0.00,617,Wunderground v.1.15,2014-04-05 23:10:00,
2014-04-05 16:15:00,67.5,19.7,29.76,WSW,249,7.0,-999.0,16,0.00,,,0.00,132,Wunderground v.1.15,2014-04-05 23:15:00,
2014-04-05 16:20:00,66.6,20.4,29.76,WSW,253,7.0,-999.0,17,0.00,,,0.00,156,Wunderground v.1.15,2014-04-05 23:20:00,
2014-04-05 16:25:00,65.7,21.0,29.76,WSW,249,3.0,-999.0,18,0.00,,,0.00,202,Wunderground v.1.15,2014-04-05 23:25:00,
2014-04-05 16:30:00,65.1,20.5,29.76,WSW,255,7.0,-999.0,18,0.00,,,0.00,253,Wunderground v.1.15,2014-04-05 23:30:00,
2014-04-05 16:35:00,65.0,20.4,29.76,West,266,6.0,-999.0,18,0.00,,,0.00,596,Wunderground v.1.15,2014-04-05 23:35:00,
2014-04-05 16:40:00,64.9,20.3,29.76,West,281,7.0,-999.0,18,0.00,,,0.00,153,Wunderground v.1.15,2014-04-05 23:40:00,
2014-04-05 16:45:00,64.8,20.2,29.77,West,278,1.0,-999.0,18,0.00,,,0.00,153,Wunderground v.1.15,2014-04-05 23:45:00,
2014-04-05 16:50:00,64.5,20.0,29.77,SW,220,0.0,-999.0,18,0.00,,,0.00,149,Wunderground v.1.15,2014-04-05 23:50:00,
2014-04-05 16:55:00,64.6,20.1,29.77,SW,227,4.0,-999.0,18,0.00,,,0.00,482,Wunderground v.1.15,2014-04-05 23:55:00,
2014-04-05 17:00:00,65.1,20.5,29.77,SW,232,0.0,-999.0,18,0.00,,,0.00,466,Wunderground v.1.15,2014-04-06 00:00:00,
2014-04-05 17:05:00,65.7,19.6,29.77,SW,231,0.0,-999.0,17,0.00,,,0.00,459,Wunderground v.1.15,2014-04-06 00:05:00,
2014-04-05 17:10:00,66.1,20.0,29.77,SW,232,3.0,-999.0,17,0.00,,,0.00,422,Wunderground v.1.15,2014-04-06 00:10:00,
2014-04-05 17:15:00,66.4,20.2,29.77,SW,231,0.0,-999.0,17,0.00,,,0.00,394,Wunderground v.1.15,2014-04-06 00:15:00,
2014-04-05 17:20:00,66.1,20.0,29.77,SW,228,6.0,-999.0,17,0.00,,,0.00,202,Wunderground v.1.15,2014-04-06 00:20:00,
2014-04-05 17:25:00,65.5,19.5,29.77,WSW,258,10.0,-999.0,17,0.00,,,0.00,301,Wunderground v.1.15,2014-04-06 00:25:00,
2014-04-05 17:30:00,64.9,19.0,29.77,West,266,2.0,-999.0,17,0.00,,,0.00,102,Wunderground v.1.15,2014-04-06 00:30:00,
2014-04-05 17:35:00,64.4,19.9,29.77,West,260,4.0,-999.0,18,0.00,,,0.00,163,Wunderground v.1.15,2014-04-06 00:35:00,
2014-04-05 17:40:00,64.0,19.6,29.77,WNW,286,4.0,-999.0,18,0.00,,,0.00,246,Wunderground v.1.15,2014-04-06 00:40:00,
2014-04-05 17:45:00,63.8,19.4,29.77,WNW,289,4.0,-999.0,18,0.00,,,0.00,148,Wunderground v.1.15,2014-04-06 00:45:00,
2014-04-05 17:50:00,63.5,19.2,29.77,West,272,0.0,-999.0,18,0.00,,,0.00,84,Wunderground v.1.15,2014-04-06 00:50:00,
2014-04-05 17:55:00,63.1,18.9,29.77,West,272,6.0,-999.0,18,0.00,,,0.00,69,Wunderground v.1.15,2014-04-06 00:55:00,
2014-04-05 18:00:00,62.6,18.4,29.77,West,272,1.0,-999.0,18,0.00,,,0.00,56,Wunderground v.1.15,2014-04-06 01:00:00,
2014-04-05 18:05:00,62.2,19.4,29.78,West,274,6.0,-999.0,19,0.00,,,0.00,49,Wunderground v.1.15,2014-04-06 01:05:00,
2014-04-05 18:10:00,61.7,19.0,29.78,West,277,6.0,-999.0,19,0.00,,,0.00,44,Wunderground v.1.15,2014-04-06 01:10:00,
2014-04-05 18:15:00,61.3,17.4,29.78,West,274,3.0,-999.0,18,0.00,,,0.00,35,Wunderground v.1.15,2014-04-06 01:15:00,
2014-04-05 18:20:00,60.9,17.0,29.78,West,272,6.0,-999.0,18,0.00,,,0.00,30,Wunderground v.1.15,2014-04-06 01:20:00,
2014-04-05 18:25:00,60.6,18.1,29.78,West,273,0.0,-999.0,19,0.00,,,0.00,25,Wunderground v.1.15,2014-04-06 01:25:00,
2014-04-05 18:30:00,60.3,17.8,29.78,West,273,2.0,-999.0,19,0.00,,,0.00,19,Wunderground v.1.15,2014-04-06 01:30:00,
2014-04-05 18:35:00,60.0,17.6,29.79,West,273,1.0,-999.0,19,0.00,,,0.00,14,Wunderground v.1.15,2014-04-06 01:35:00,
2014-04-05 18:40:00,59.6,18.4,29.79,West,273,0.0,-999.0,20,0.00,,,0.00,7,Wunderground v.1.15,2014-04-06 01:40:00,
2014-04-05 18:45:00,59.2,18.1,29.79,West,273,2.0,-999.0,20,0.00,,,0.00,0,Wunderground v.1.15,2014-04-06 01:45:00,
2014-04-05 18:50:00,59.0,17.9,29.79,West,273,3.0,-999.0,20,0.00,,,0.00,0,Wunderground v.1.15,2014-04-06 01:50:00,
2014-04-05 18:55:00,58.9,19.0,29.79,West,273,1.0,-999.0,21,0.00,,,0.00,0,Wunderground v.1.15,2014-04-06 01:55:00,
2014-04-05 19:00:00,58.5,18.6,29.80,West,273,0.0,-999.0,21,0.00,,,0.00,0,Wunderground v.1.15,2014-04-06 02:00:00,
2014-04-05 19:07:00,58.2,19.5,29.80,West,273,0.0,-999.0,22,0.00,,,0.00,0,Wunderground v.1.15,2014-04-06 02:07:00,
2014-04-05 19:12:00,58.0,19.3,29.81,West,273,0.0,-999.0,22,0.00,,,0.00,0,Wunderground v.1.15,2014-04-06 02:12:00,
2014-04-05 19:17:00,57.8,19.1,29.80,West,273,0.0,-999.0,22,0.00,,,0.00,0,Wunderground v.1.15,2014-04-06 02:17:00,
2014-04-05 19:18:00,57.8,19.1,29.81,West,273,0.0,-999.0,22,0.00,,,0.00,0,Wunderground v.1.15,2014-04-06 02:18:00,
2014-04-05 19:23:00,57.6,20.0,29.81,West,273,0.0,-999.0,23,0.00,,,0.00,0,Wunderground v.1.15,2014-04-06 02:23:00,
2014-04-05 19:28:00,57.6,20.0,29.81,West,273,0.0,-999.0,23,0.00,,,0.00,0,Wunderground v.1.15,2014-04-06 02:28:00,
2014-04-05 19:33:00,57.5,19.9,29.81,West,273,0.0,-999.0,23,0.00,,,0.00,0,Wunderground v.1.15,2014-04-06 02:33:00,
2014-04-05 19:38:00,57.3,20.8,29.81,West,273,0.0,-999.0,24,0.00,,,0.00,0,Wunderground v.1.15,2014-04-06 02:38:00,
2014-04-05 19:43:00,57.2,20.7,29.82,West,273,0.0,-999.0,24,0.00,,,0.00,0,Wunderground v.1.15,2014-04-06 02:43:00,
2014-04-05 19:48:00,57.1,21.6,29.82,West,278,4.0,-999.0,25,0.00,,,0.00,0,Wunderground v.1.15,2014-04-06 02:48:00,
2014-04-05 19:53:00,57.1,21.6,29.82,West,278,0.0,-999.0,25,0.00,,,0.00,0,Wunderground v.1.15,2014-04-06 02:53:00,
2014-04-05 19:58:00,57.1,21.6,29.83,West,278,0.0,-999.0,25,0.00,,,0.00,0,Wunderground v.1.15,2014-04-06 02:58:00,
2014-04-05 20:03:00,57.0,21.5,29.83,West,277,0.0,-999.0,25,0.00,,,0.00,0,Wunderground v.1.15,2014-04-06 03:03:00,
2014-04-05 20:08:00,56.8,21.3,29.83,West,277,1.0,-999.0,25,0.00,,,0.00,0,Wunderground v.1.15,2014-04-06 03:08:00,
2014-04-05 20:13:00,56.7,21.2,29.83,West,278,0.0,-999.0,25,0.00,,,0.00,0,Wunderground v.1.15,2014-04-06 03:13:00,
2014-04-05 20:18:00,56.5,22.0,29.83,West,278,1.0,-999.0,26,0.00,,,0.00,0,Wunderground v.1.15,2014-04-06 03:18:00,
2014-04-05 20:23:00,56.3,22.7,29.84,WNW,282,0.0,-999.0,27,0.00,,,0.00,0,Wunderground v.1.15,2014-04-06 03:23:00,
2014-04-05 20:28:00,56.2,22.6,29.84,WNW,282,0.0,-999.0,27,0.00,,,0.00,0,Wunderground v.1.15,2014-04-06 03:28:00,
2014-04-05 20:33:00,56.1,22.5,29.84,WNW,282,0.0,-999.0,27,0.00,,,0.00,0,Wunderground v.1.15,2014-04-06 03:33:00,
2014-04-05 20:38:00,55.9,22.4,29.85,West,281,0.0,-999.0,27,0.00,,,0.00,0,Wunderground v.1.15,2014-04-06 03:38:00,
2014-04-05 20:43:00,55.8,23.1,29.85,WNW,282,0.0,-999.0,28,0.00,,,0.00,0,Wunderground v.1.15,2014-04-06 03:43:00,
2014-04-05 20:48:00,55.5,22.9,29.85,West,281,0.0,-999.0,28,0.00,,,0.00,0,Wunderground v.1.15,2014-04-06 03:48:00,
2014-04-05 20:53:00,55.3,22.7,29.85,WNW,282,0.0,-999.0,28,0.00,,,0.00,0,Wunderground v.1.15,2014-04-06 03:53:00,
2014-04-05 20:58:00,55.0,22.4,29.85,WNW,282,0.0,-999.0,28,0.00,,,0.00,0,Wunderground v.1.15,2014-04-06 03:58:00,
2014-04-05 21:01:00,54.9,22.4,29.85,WNW,282,0.0,-999.0,28,0.00,,,0.00,0,Wunderground v.1.15,2014-04-06 04:01:00,
2014-04-05 21:02:00,54.8,22.3,29.86,WNW,282,0.0,-999.0,28,0.00,,,0.00,0,Wunderground v.1.15,2014-04-06 04:02:00,
2014-04-05 21:07:00,54.4,21.9,29.86,West,281,0.0,-999.0,28,0.00,,,0.00,0,Wunderground v.1.15,2014-04-06 04:07:00,
2014-04-05 21:12:00,54.1,22.5,29.86,WNW,282,0.0,-999.0,29,0.00,,,0.00,0,Wunderground v.1.15,2014-04-06 04:12:00,
2014-04-05 21:17:00,53.7,22.2,29.86,WNW,282,0.0,-999.0,29,0.00,,,0.00,0,Wunderground v.1.15,2014-04-06 04:17:00,
2014-04-05 21:22:00,53.4,21.9,29.86,WNW,282,0.0,-999.0,29,0.00,,,0.00,0,Wunderground v.1.15,2014-04-06 04:22:00,
2014-04-05 21:27:00,53.1,22.4,29.86,WNW,282,0.0,-999.0,30,0.00,,,0.00,0,Wunderground v.1.15,2014-04-06 04:27:00,
2014-04-05 21:32:00,52.9,22.3,29.86,WNW,282,0.0,-999.0,30,0.00,,,0.00,0,Wunderground v.1.15,2014-04-06 04:32:00,
2014-04-05 21:37:00,52.7,22.1,29.87,West,281,0.0,-999.0,30,0.00,,,0.00,0,Wunderground v.1.15,2014-04-06 04:37:00,
2014-04-05 21:42:00,52.4,21.8,29.87,WNW,282,0.0,-999.0,30,0.00,,,0.00,0,Wunderground v.1.15,2014-04-06 04:42:00,
2014-04-05 21:47:00,52.3,21.7,29.87,WNW,282,0.0,-999.0,30,0.00,,,0.00,0,Wunderground v.1.15,2014-04-06 04:47:00,
2014-04-05 21:52:00,52.1,21.6,29.87,West,281,0.0,-999.0,30,0.00,,,0.00,0,Wunderground v.1.15,2014-04-06 04:52:00,
2014-04-05 21:57:00,51.9,21.4,29.87,WNW,282,0.0,-999.0,30,0.00,,,0.00,0,Wunderground v.1.15,2014-04-06 04:57:00,
2014-04-05 22:02:00,51.7,21.2,29.87,WNW,282,0.0,-999.0,30,0.00,,,0.00,0,Wunderground v.1.15,2014-04-06 05:02:00,
2014-04-05 22:07:00,51.5,21.8,29.87,WNW,282,0.0,-999.0,31,0.00,,,0.00,0,Wunderground v.1.15,2014-04-06 05:07:00,
2014-04-05 22:12:00,51.3,21.6,29.87,WNW,282,0.0,-999.0,31,0.00,,,0.00,0,Wunderground v.1.15,2014-04-06 05:12:00,
2014-04-05 22:17:00,51.1,21.5,29.87,West,281,0.0,-999.0,31,0.00,,,0.00,0,Wunderground v.1.15,2014-04-06 05:17:00,
2014-04-05 22:22:00,50.8,21.2,29.87,WNW,282,0.0,-999.0,31,0.00,,,0.00,0,Wunderground v.1.15,2014-04-06 05:22:00,
2014-04-05 22:27:00,50.5,20.9,29.88,West,281,0.0,-999.0,31,0.00,,,0.00,0,Wunderground v.1.15,2014-04-06 05:27:00,
2014-04-05 22:32:00,50.2,20.7,29.88,West,281,0.0,-999.0,31,0.00,,,0.00,0,Wunderground v.1.15,2014-04-06 05:32:00,
2014-04-05 22:37:00,49.9,21.2,29.88,WNW,282,0.0,-999.0,32,0.00,,,0.00,0,Wunderground v.1.15,2014-04-06 05:37:00,
2014-04-05 22:42:00,49.7,21.0,29.88,WNW,282,0.0,-999.0,32,0.00,,,0.00,0,Wunderground v.1.15,2014-04-06 05:42:00,
2014-04-05 22:47:00,49.4,21.5,29.88,WNW,282,0.0,-999.0,33,0.00,,,0.00,0,Wunderground v.1.15,2014-04-06 05:47:00,
2014-04-05 22:52:00,49.2,21.3,29.89,West,281,0.0,-999.0,33,0.00,,,0.00,0,Wunderground v.1.15,2014-04-06 05:52:00,
2014-04-05 22:57:00,49.0,21.1,29.88,WNW,282,0.0,-999.0,33,0.00,,,0.00,0,Wunderground v.1.15,2014-04-06 05:57:00,
2014-04-05 23:02:00,49.0,21.8,29.89,West,281,0.0,-999.0,34,0.00,,,0.00,0,Wunderground v.1.15,2014-04-06 06:02:00,
2014-04-05 23:08:00,49.0,21.8,29.89,West,281,0.0,-999.0,34,0.00,,,0.00,0,Wunderground v.1.15,2014-04-06 06:08:00,
2014-04-05 23:13:00,49.2,22.0,29.89,West,281,2.0,-999.0,34,0.00,,,0.00,0,Wunderground v.1.15,2014-04-06 06:13:00,
2014-04-05 23:18:00,49.4,22.2,29.89,WNW,282,0.0,-999.0,34,0.00,,,0.00,0,Wunderground v.1.15,2014-04-06 06:18:00,
2014-04-05 23:23:00,49.7,21.7,29.89,WNW,282,1.0,-999.0,33,0.00,,,0.00,0,Wunderground v.1.15,2014-04-06 06:23:00,
2014-04-05 23:28:00,50.2,22.2,29.89,WNW,282,4.0,-999.0,33,0.00,,,0.00,0,Wunderground v.1.15,2014-04-06 06:28:00,
2014-04-05 23:33:00,50.6,22.5,29.89,WNW,285,4.0,-999.0,33,0.00,,,0.00,0,Wunderground v.1.15,2014-04-06 06:33:00,
2014-04-05 23:38:00,50.9,22.8,29.90,WNW,286,2.0,-999.0,33,0.00,,,0.00,0,Wunderground v.1.15,2014-04-06 06:38:00,
2014-04-05 23:43:00,51.0,22.9,29.90,WNW,286,4.0,-999.0,33,0.00,,,0.00,0,Wunderground v.1.15,2014-04-06 06:43:00,
2014-04-05 23:48:00,51.0,22.9,29.90,WNW,287,1.0,-999.0,33,0.00,,,0.00,0,Wunderground v.1.15,2014-04-06 06:48:00,
2014-04-05 23:53:00,50.9,22.8,29.90,WNW,287,0.0,-999.0,33,0.00,,,0.00,0,Wunderground v.1.15,2014-04-06 06:53:00,
2014-04-05 23:58:00,50.8,22.7,29.90,WNW,287,0.0,-999.0,33,0.00,,,0.00,0,Wunderground v.1.15,2014-04-06 06:58:00,